Hourly Data Report for January 08, 2012

HALIFAX STANFIELD INT'L A
NOVA SCOTIA

44°52'48.060" N
63°30'00.050" W
145.40 m
8202250
71395
YHZ

Download Data

Hourly Data (January 2012)
Hourly Data Report for January 8, 2012
TIME
LST
Temp Definition
°C
Dew Point Definition
°C
Rel Hum Definition
%
Precip. Amount Definition
mm

Wind Dir Definition
10's deg

Wind Spd Definition
km/h
Visibility Definition
km
Stn Press Definition
kPa
Hmdx Definition


Wind Chill Definition


Weather Definition


00:00 3.5 3.5 100   25 15 0.6 98.64     Fog
01:00 2.9 2.8 99   25 17 4.8 98.65     Fog
02:00 3.0 2.9 99   26 15 12.9 98.69     Cloudy
03:00 3.6 3.4 99   27 15 12.9 98.82     Cloudy
04:00 3.7 3.3 97   30 22 16.1 98.90     Cloudy
05:00 3.3 2.6 95   31 22 19.3 98.94     Cloudy
06:00 2.5 1.9 96   31 26 19.3 99.07     Cloudy
07:00 2.1 1.1 93   29 17 19.3 99.20     Cloudy
08:00 1.5 0.2 91   30 26 24.1 99.31     Cloudy
09:00 1.3 -0.1 90   29 13 24.1 99.45     Mostly Cloudy
10:00 1.6 0.0 89   28 11 24.1 99.55     Mostly Cloudy
11:00 1.8 -0.5 85   31 20 24.1 99.60     Cloudy
12:00 1.5 -1.3 82   31 22 24.1 99.63     Cloudy
13:00 2.4 -1.4 76   32 24 24.1 99.63     Mostly Cloudy
14:00 2.8 -1.8 72   31 19 24.1 99.66     Mainly Clear
15:00 2.5 -3.0 67   32 15 24.1 99.75     Mainly Clear
16:00 1.8 -3.2 69   31 13 24.1 99.84     Mainly Clear
17:00 0.0 -3.8 76   31 15 24.1 99.95   -4 Mainly Clear
18:00 -0.6 -4.0 78   34 11 24.1 99.99   -4 Mainly Clear
19:00 -0.7 -3.9 79   32 11 24.1 100.05   -4 Mainly Clear
20:00 -2.5 -4.4 87     0 24.1 100.15     Mostly Cloudy
21:00 -2.2 -4.2 86   2 9 24.1 100.19   -6 Cloudy
22:00 -2.6 -4.8 85   4 9 24.1 100.19   -6 Cloudy
23:00 -2.8 -5.1 84   5 7 24.1 100.18   -6 Cloudy

Notes on Data Quality.

Legend

  • E = Estimated
  • M = Missing
  • NA = Not Available*
  • [empty] = Indicates an unobserved value
Date modified: